Reynoldsville, PA

6:36 PM EST on February 24, 2017 (GMT -0500)
Du Bois-Jefferson County

Weather History for KDUJ - December, 2012

Change the Weather History Date:

Wednesday, December 12, 2012

  Actual Average Record
Temperature  
Mean Temperature 30 °F 29 °F  
Max Temperature 36 °F 36 °F 62 °F (2015)
Min Temperature 24 °F 22 °F -8 °F (1988)
Degree Days  
Heating Degree Days 35 36  
Month to date heating degree days 291 409  
Since 1 July heating degree days 1788 1926  
Cooling Degree Days 0 0  
Month to date cooling degree days 0 0  
Year to date cooling degree days 548 362  
Moisture  
Dew Point 21 °F    
Average Humidity 72    
Maximum Humidity 92    
Minimum Humidity 52    
Precipitation  
Precipitation 0.00 in 0.10 in 0.50 in (1964)
Month to date precipitation 2.44 1.29  
Sea Level Pressure  
Sea Level Pressure 30.34 in    
Wind  
Wind Speed 4 mph (WSW)    
Max Wind Speed 12 mph    
Max Gust Speed 16 mph    
Visibility 10 miles    
Events      
T = Trace of Precipitation, MM = Missing Value Source: NWS Daily Summary

Daily Weather History Graph

Daily Weather History Graph

Search for Another Location

Airport or City:

Trip Planner

Search our weather history database for the weather conditions in past years. The results will help you decide how hot, cold, wet, or windy it might be!

Date:

Astronomy

Dec. 12, 2012 Rise Set
Actual Time 7:32 AM EST 4:47 PM EST
Civil Twilight 7:00 AM EST 5:18 PM EST
Nautical Twilight 6:26 AM EST 5:52 PM EST
Astronomical Twilight 5:52 AM EST 6:26 PM EST
Moon 6:34 AM EST (12/12) 4:22 PM EST (12/12)
Length of Visible Light 10h 17m
Length of Day
9h 14m
Waning Crescent, 1% of the Moon is Illuminated
Dec 12
Waning Crescent
Dec 13
New
Dec 20
First Quarter
Dec 28
Full
Jan 4
Last Quarter

Hourly Weather History & Observations

Time (EST) Temp. Windchill Dew Point Humidity Pressure Visibility Wind Dir Wind Speed Gust Speed Precip Events Conditions
12:56 AM 28.0 °F 24.2 °F 25.0 °F 88% 30.21 in 10.0 mi SW 3.5 mph - N/A   Overcast
1:56 AM 28.9 °F 21.1 °F 26.1 °F 89% 30.23 in 10.0 mi WSW 8.1 mph - N/A   Overcast
2:06 AM 28.4 °F 21.2 °F 26.6 °F 93% 30.18 in 10.0 mi West 6.9 mph - N/A   Overcast
2:56 AM 28.9 °F 21.9 °F 25.0 °F 85% 30.25 in 10.0 mi West 6.9 mph - N/A   Overcast
3:23 AM 28.4 °F 20.4 °F 23.0 °F 80% 30.20 in 10.0 mi West 8.1 mph - N/A   Overcast
3:53 AM 26.6 °F 18.2 °F 23.0 °F 86% 30.20 in 10.0 mi WSW 8.1 mph - N/A   Scattered Clouds
3:56 AM 27.0 °F 18.7 °F 23.0 °F 85% 30.27 in 10.0 mi WSW 8.1 mph - N/A   Partly Cloudy
4:30 AM 26.6 °F 20.0 °F 21.2 °F 80% 30.22 in 10.0 mi WSW 5.8 mph - N/A   Mostly Cloudy
4:56 AM 27.0 °F 18.0 °F 21.9 °F 81% 30.30 in 10.0 mi WSW 9.2 mph - N/A   Mostly Cloudy
5:56 AM 25.0 °F 17.1 °F 19.9 °F 81% 30.32 in 10.0 mi WSW 6.9 mph - N/A   Scattered Clouds
6:56 AM 25.0 °F 19.3 °F 19.9 °F 81% 30.35 in 10.0 mi WSW 4.6 mph - N/A   Clear
7:56 AM 24.1 °F 18.2 °F 19.9 °F 84% 30.37 in 10.0 mi WSW 4.6 mph - N/A   Clear
8:56 AM 26.1 °F 18.4 °F 21.9 °F 84% 30.38 in 10.0 mi WSW 6.9 mph - N/A   Clear
9:56 AM 28.9 °F 21.1 °F 21.9 °F 75% 30.40 in 10.0 mi SW 8.1 mph - N/A   Clear
10:56 AM 30.0 °F 23.2 °F 21.0 °F 69% 30.40 in 10.0 mi WSW 6.9 mph - N/A   Partly Cloudy
11:56 AM 32.0 °F 24.8 °F 19.9 °F 61% 30.38 in 10.0 mi SW 8.1 mph - N/A   Clear
12:56 PM 35.1 °F 29.3 °F 19.9 °F 54% 30.38 in 10.0 mi West 6.9 mph 16.1 mph N/A   Clear
1:56 PM 35.1 °F - 19.0 °F 52% 30.37 in 10.0 mi Calm Calm - N/A   Clear
2:56 PM 36.0 °F 30.3 °F 19.0 °F 50% 30.38 in 10.0 mi WNW 6.9 mph - N/A   Clear
3:56 PM 35.1 °F 32.2 °F 19.0 °F 52% 30.38 in 10.0 mi West 3.5 mph - N/A   Clear
4:56 PM 32.0 °F - 19.0 °F 59% 30.39 in 10.0 mi Calm Calm - N/A   Clear
5:56 PM 30.0 °F - 18.0 °F 61% 30.40 in 10.0 mi Calm Calm - N/A   Clear
6:56 PM 28.9 °F - 18.0 °F 64% 30.42 in 10.0 mi Calm Calm - N/A   Clear
7:56 PM 28.9 °F - 18.0 °F 64% 30.43 in 10.0 mi Calm Calm - N/A   Clear
8:56 PM 28.9 °F - 18.0 °F 64% 30.42 in 10.0 mi Calm Calm - N/A   Clear
9:56 PM 28.0 °F - 17.1 °F 63% 30.44 in 10.0 mi Calm Calm - N/A   Clear
11:56 PM 24.1 °F - 19.0 °F 81% 30.44 in 10.0 mi Calm Calm - N/A   Clear